Probability
3 2 1 0 0 0 0 0 0 0 0 0 0 0 0 0 0 0 0 0 0 1 1 1 0 0 1 2 3 3 3 3 3 3 4 5 5 5 5 4 3 2 1
3 2 1 0 0 0 0 0 0 0 0 0 0 0 0 0 0 0 0 0 0 0 0 0 0 0 1 2 2 2 3 3 3 2 3 3 4 4 3 3 2 2 2
3 2 1 0 0 0 0 0 0 0 0 0 0 0 0 0 0 0 0 0 0 0 0 0 0 1 1 2 1 1 1 2 2 1 1 1 2 2 1 1 1 1 1
2 1 0 0 0 0 0 0 0 0 0 0 0 0 0 0 0 0 0 0 0 0 0 0 0 1 2 2 2 1 0 1 2 1 0 0 0 0 0 0 0 0 0
2 1 0 0 0 0 0 0 0 0 0 0 0 0 0 0 0 0 0 0 0 0 0 0 0 1 2 3 3 1 1 1 2 2 1 0 0 0 0 0 0 0 0
2 1 0 0 0 0 0 0 0 0 0 0 0 0 0 0 0 0 0 0 0 0 0 0 0 0 1 2 3 2 2 1 2 3 3 1 0 0 0 0 0 0 0
1 0 0 0 0 0 0 0 0 0 0 0 0 0 0 0 0 0 0 0 0 0 0 0 0 0 0 1 2 2 1 1 1 3 4 3 1 1 1 0 0 1 1
1 0 0 0 0 0 0 0 0 0 0 0 0 0 0 0 0 0 0 0 0 0 0 0 0 0 0 0 0 0 0 0 1 2 4 3 3 2 2 1 1 1 2
1 0 0 0 0 0 0 0 0 0 0 0 0 0 0 0 0 0 0 0 0 0 0 0 0 0 0 0 0 0 0 0 0 1 2 2 3 3 3 2 1 2 3
0 0 0 0 0 0 0 0 0 0 0 0 0 0 0 0 0 0 0 0 0 0 0 0 0 0 0 0 0 0 0 0 0 0 0 1 3 3 3 3 3 3 4
0 0 0 0 0 0 0 0 0 0 0 0 0 0 0 0 0 0 0 0 0 0 0 0 0 0 0 0 0 0 0 0 0 0 0 1 2 3 3 3 3 3 4
0 0 0 0 0 0 0 0 0 0 0 0 0 0 0 0 0 0 0 0 0 0 0 0 0 0 0 0 0 0 0 0 0 0 0 0 1 2 3 3 3 3 2
0 0 0 0 0 0 0 0 0 0 0 0 0 0 0 0 0 0 0 0 0 0 0 0 0 0 0 0 0 0 0 0 0 0 0 0 0 1 1 2 2 1 1
0 0 0 0 0 0 0 0 0 0 0 0 0 0 0 0 0 0 0 0 0 0 0 0 0 0 0 0 0 0 0 0 0 0 0 0 0 0 0 1 1 0 0
0 0 0 0 0 0 0 0 0 0 0 0 0 0 0 0 0 0 0 0 0 0 0 0 0 0 0 0 0 0 0 0 0 0 0 0 0 0 0 0 0 0 0
0 0 0 0 0 0 0 0 0 0 0 0 0 0 0 0 0 0 0 0 0 0 0 0 0 0 0 0 0 0 0 0 0 0 0 0 0 0 0 0 0 0 0
0 0 0 0 0 0 0 0 0 0 0 0 0 0 0 0 0 0 0 0 0 0 0 0 0 0 0 0 0 0 0 0 0 0 0 0 0 0 0 0 0 0 0
0 0 0 0 0 0 0 0 0 0 0 0 0 0 0 0 0 0 0 0 0 0 0 0 0 0 0 0 0 0 0 0 0 0 0 0 0 0 0 0 0 0 0
0 0 0 0 0 0 0 0 0 0 0 0 0 0 0 0 0 0 0 0 0 0 0 0 0 0 0 0 0 0 0 0 0 0 0 0 0 0 0 0 0 0 0
0 0 0 0 0 0 0 0 0 0 0 0 0 0 0 0 0 0 0 0 0 0 0 0 0 0 0 0 0 0 0 0 0 0 0 0 0 0 0 0 0 0 0
0 0 0 0 0 0 0 0 0 0 0 0 0 0 0 0 0 0 0 0 0 0 0 0 0 0 0 0 0 0 0 0 0 0 0 0 0 0 0 0 0 0 0
0 0 0 0 0 0 0 0 0 0 0 0 0 0 0 0 0 0 0 0 0 0 0 0 0 0 0 0 0 0 0 0 0 0 0 0 0 0 0 0 0 0 0
0 0 0 0 0 0 0 0 0 0 0 0 0 0 0 0 0 0 0 0 0 0 0 0 0 0 0 0 0 0 0 0 0 0 0 0 0 0 0 0 0 0 0
0 0 0 0 0 0 0 0 0 0 0 0 0 0 0 0 0 0 0 0 0 0 0 0 0 0 0 0 0 0 0 0 0 0 0 0 0 0 0 0 0 0 0
0 0 0 0 0 0 0 0 0 0 0 0 0 0 0 0 0 0 0 0 0 0 0 0 0 0 0 0 0 0 0 0 0 0 0 0 0 0 0 0 0 0 0
0 0 0 0 0 0 0 0 0 0 0 0 0 0 0 0 0 0 0 0 0 0 0 0 0 0 0 0 0 0 0 0 0 0 0 0 0 0 0 0 0 0 0
Wind_Speed
2 2 2 2 2 2 3 3 3 4 5 5 5 5 5 5 5 4 4 10 10 10 10 9 9 9 9 10 10 10 10 10 10 10 9 8 8 9 9 10 10 10 10
2 2 2 2 2 2 2 3 3 3 3 4 5 5 5 4 5 5 4 6 9 9 8 8 9 9 8 9 9 9 8 8 9 9 9 9 8 8 8 8 8 8 8
2 2 2 2 2 2 3 3 4 3 3 4 5 4 4 4 4 4 4 4 4 7 8 7 7 7 7 7 8 8 7 7 7 8 8 8 8 8 7 7 7 7 7
2 2 2 2 2 2 2 3 3 3 3 3 3 3 3 3 4 4 4 4 3 3 5 7 6 6 6 6 6 6 6 6 7 7 7 7 7 7 7 7 6 6 5
2 2 2 2 2 2 2 2 2 3 3 3 3 3 3 3 2 3 3 3 3 3 3 5 6 5 5 5 4 4 5 5 5 6 6 6 6 6 6 5 5 5 5
2 2 2 2 2 2 2 2 3 2 2 3 3 3 2 2 2 2 2 2 2 3 3 3 3 4 5 4 4 3 3 4 5 5 5 5 5 5 5 4 4 4 5
1 2 2 2 2 2 2 2 3 3 2 2 2 2 2 2 2 2 1 2 2 2 3 3 2 2 2 5 5 3 3 3 3 4 4 4 4 4 4 4 4 4 4
1 1 2 2 1 2 3 3 3 2 1 1 2 2 1 1 2 1 1 1 1 2 2 2 2 2 2 2 3 4 3 2 2 2 3 3 2 2 2 2 2 2 3
0 1 1 2 2 2 3 3 3 3 2 1 1 3 3 2 1 1 1 1 1 1 1 1 2 2 2 1 1 2 3 2 1 1 1 1 1 1 1 1 1 1 1
1 1 1 1 2 2 3 3 3 2 3 3 1 0 1 3 3 1 1 1 1 0 0 0 0 1 1 1 2 2 2 2 1 1 1 1 1 1 1 1 1 1 1
1 1 1 1 1 1 2 3 3 2 2 3 2 2 1 1 1 2 2 1 1 1 1 2 1 1 0 0 1 1 1 1 2 2 3 3 3 2 2 2 2 2 2
1 1 1 1 2 2 2 2 3 3 3 3 2 2 3 3 3 3 3 3 2 2 2 2 2 2 1 1 1 1 1 2 2 3 4 4 4 4 3 3 3 3 2
1 2 2 1 1 2 2 2 2 2 3 4 4 3 3 3 3 3 3 2 2 1 2 2 2 2 2 2 2 2 2 3 4 4 5 5 5 5 4 4 4 4 3
2 2 2 2 2 2 2 2 2 3 2 3 3 3 3 3 3 3 3 3 2 2 2 3 2 3 3 2 3 3 2 4 5 6 6 5 5 4 4 4 4 4 4
2 2 2 2 2 2 2 2 2 3 3 3 3 3 3 2 3 3 3 4 4 4 5 4 3 2 3 2 4 2 2 6 6 6 6 5 5 5 4 4 4 4 4
2 2 2 2 2 2 2 2 2 3 3 3 3 3 3 2 3 3 4 4 4 4 5 3 3 2 3 3 4 3 3 6 6 7 6 6 5 5 5 5 4 5 5
2 3 3 3 3 3 3 3 3 3 4 3 3 4 5 4 3 3 4 4 4 4 5 3 2 2 4 4 3 3 3 3 4 7 7 7 6 6 6 6 6 5 5
3 3 3 3 3 3 3 4 4 4 4 5 4 4 5 4 5 4 4 5 5 5 5 5 3 3 4 4 4 4 3 3 3 6 7 7 6 6 6 6 6 6 6
3 3 3 3 4 4 4 5 5 5 5 5 5 5 5 5 6 5 5 5 5 4 4 5 4 3 3 3 3 3 3 3 3 4 6 7 7 7 7 7 7 6 6
3 3 4 4 4 4 5 5 5 5 5 5 5 6 6 6 7 6 6 6 5 5 5 5 5 4 3 3 3 3 3 3 3 3 5 6 7 8 8 8 8 7 7
3 3 4 4 4 4 5 5 5 5 6 6 6 6 6 8 9 8 6 5 6 5 5 5 5 4 4 4 5 3 4 3 3 3 3 3 3 3 4 7 8 9 8
3 3 3 4 5 4 8 9 7 6 6 6 6 6 7 8 10 11 12 11 10 8 8 7 6 7 7 6 4 4 4 3 4 3 3 3 3 4 4 4 8 10 10
3 4 4 4 5 6 10 10 10 6 6 6 6 6 6 6 8 6 9 11 11 13 13 9 9 9 8 8 7 6 6 6 5 3 3 4 3 5 4 6 10 11 10
3 4 4 5 5 7 10 10 11 6 5 6 6 6 6 6 6 6 6 7 7 9 10 8 9 9 8 8 9 8 7 4 3 3 4 4 4 4 4 4 10 11 10
4 4 4 4 4 6 10 10 10 5 5 6 6 7 7 7 10 11 7 7 7 7 9 12 12 11 12 12 9 5 5 4 4 4 4 3 3 3 3 4 6 9 9
4 4 5 4 4 6 10 11 10 4 5 5 5 6 10 10 12 12 8 7 8 7 6 6 7 8 8 9 12 9 8 6 4 4 4 4 3 2 3 3 3 3 5
Wind_Direction
82 77 65 65 62 64 75 80 77 74 76 72 65 62 59 54 48 45 42 50 63 74 80 82 85 84 84 83 80 79 83 83 82 81 80 82 84 86 87 86 83 80 76
92 90 82 65 63 68 77 86 86 79 75 79 72 63 59 55 51 48 45 42 49 60 73 79 82 82 82 81 80 79 79 85 86 84 81 78 82 85 85 83 83 81 78
94 96 101 88 66 68 81 88 83 79 77 76 72 65 59 53 53 48 45 41 39 43 58 73 79 82 81 81 82 81 79 78 85 84 83 81 81 83 81 80 82 82 80
91 98 101 98 84 85 88 100 102 95 78 75 73 61 57 53 50 49 48 44 42 34 36 52 65 80 83 80 81 82 81 78 87 84 81 80 79 82 82 78 79 80 82
98 112 106 111 101 97 94 103 99 115 107 89 81 67 56 57 50 50 53 48 47 43 36 34 40 54 68 72 74 77 83 82 90 89 84 80 79 78 81 78 79 77 81
96 112 113 117 118 117 104 107 102 91 119 117 91 68 48 51 57 52 49 44 47 49 47 44 36 31 41 55 64 69 87 92 86 91 86 84 83 76 76 79 81 81 80
104 119 123 125 134 140 143 134 128 110 105 125 99 71 34 43 63 53 46 53 45 43 51 49 47 41 26 37 46 63 77 86 87 86 88 89 89 80 71 80 84 81 76
118 120 137 147 155 150 148 146 145 129 136 154 132 121 58 357 8 35 41 62 49 43 49 43 46 43 37 27 21 44 60 71 64 67 78 78 81 84 86 80 91 83 71
335 146 155 155 164 175 177 178 173 161 168 212 177 150 158 199 263 326 2 37 53 67 52 34 37 33 39 31 9 26 40 35 45 31 29 56 41 56 97 63 82 95 63
6 28 140 159 175 188 190 192 193 194 168 182 204 207 157 156 157 223 306 328 318 250 229 256 351 1 32 16 352 355 23 7 316 288 302 303 289 320 327 309 315 302 283
348 338 170 164 175 199 211 202 202 200 191 187 190 182 154 139 157 166 222 253 285 261 240 226 221 222 239 239 272 291 318 308 287 285 287 286 283 284 308 290 302 300 270
324 336 280 209 199 201 214 215 207 208 208 201 205 201 184 179 183 179 202 217 238 254 251 232 220 219 217 213 256 278 286 282 279 282 281 280 279 278 289 290 279 285 286
301 292 311 268 239 222 223 225 207 216 218 209 207 220 225 213 187 181 188 211 240 268 259 246 226 215 216 205 237 255 266 272 270 275 276 278 280 280 282 282 286 273 276
266 274 273 279 271 258 235 228 224 222 219 227 228 220 231 231 208 193 185 185 213 254 243 243 238 220 215 212 235 238 246 266 268 272 271 276 286 289 284 275 281 277 271
279 280 278 282 280 265 246 236 235 225 218 226 231 230 234 246 228 212 199 194 190 216 237 223 220 220 217 213 235 220 231 252 259 266 269 273 277 273 269 271 275 277 276
278 268 274 277 280 265 251 236 254 236 225 230 229 228 238 244 243 224 209 207 208 210 232 219 219 214 214 230 235 219 234 256 255 260 261 263 265 260 260 259 261 262 264
277 266 265 265 270 264 249 232 246 241 234 239 237 229 233 232 236 235 221 214 213 209 229 248 239 222 210 217 232 224 224 232 242 252 253 254 253 255 257 260 256 260 260
278 273 268 261 258 260 250 236 241 244 234 238 241 239 238 233 233 237 226 222 220 214 216 235 238 220 225 217 212 219 235 243 237 247 246 245 246 253 259 258 255 257 260
282 277 268 258 258 257 254 244 237 244 239 237 237 239 241 233 237 238 234 227 226 225 218 221 230 219 221 217 208 225 229 230 241 247 243 241 246 252 254 252 254 256 257
275 271 270 265 263 260 258 250 242 249 246 242 239 237 237 232 234 232 235 230 222 221 219 217 223 216 217 203 197 211 232 221 235 246 246 248 251 254 254 257 254 252 253
288 279 275 273 270 260 254 254 241 245 243 244 244 241 242 241 238 236 236 232 221 219 217 219 220 221 215 200 209 205 226 237 237 220 229 241 240 239 242 254 259 249 250
304 297 287 279 273 268 266 263 254 245 242 241 245 247 247 248 247 248 249 245 233 221 216 217 221 219 219 211 207 207 212 220 244 209 203 241 230 241 244 235 251 254 250
306 301 292 284 277 279 278 271 262 254 243 243 243 245 249 248 249 244 249 252 248 243 232 219 219 221 215 205 199 209 213 221 232 202 193 240 227 241 242 251 255 254 253
299 294 291 283 279 280 284 278 272 260 247 243 244 243 243 247 245 246 244 247 247 244 240 232 224 222 217 207 201 206 212 222 232 211 194 234 230 238 253 247 250 249 252
304 296 290 290 289 290 291 286 280 261 254 248 248 247 245 242 249 250 245 244 251 255 254 249 241 233 228 222 209 188 188 199 225 221 202 212 227 244 251 246 245 246 251
300 301 299 296 292 292 293 289 282 261 256 255 253 249 250 252 251 250 243 237 242 246 244 251 251 243 227 218 214 199 188 196 207 222 197 195 202 204 253 244 236 239 247